• In Österreich
  • Länderverzeichnis
  • Für 7 Tage
  • Wassertemperatur
  • Satellitenkarten
  • Wetterkarte
  • News
  • Widgets
  • user-avatar
    Anmelden

    Stündliche Wetter Sarajevo

    Heute, 20 Oktober, Freitag

    Zeit Temperatur Niederschläge Wind Luftdruck Luftfeuchtigkeit
    00:00 +11°C° 0 mm 1 m/S 690 mmHg 80%
    01:00 +11°C° 0 mm 1 m/S 690 mmHg 81%
    02:00 +11°C° 0 mm 1 m/S 690 mmHg 80%
    03:00 +10°C° 0 mm 1 m/S 690 mmHg 80%
    04:00 +10°C° 0 mm 1 m/S 689 mmHg 79%
    05:00 +10°C° 0 mm 1 m/S 690 mmHg 77%
    06:00 +10°C° 0 mm 1 m/S 690 mmHg 75%
    07:00 +11°C° 0 mm 1 m/S 690 mmHg 73%
    08:00 +13°C° 0 mm 1 m/S 691 mmHg 65%
    09:00 +16°C° 0 mm 1 m/S 691 mmHg 57%
    10:00 +19°C° 0 mm 1 m/S 692 mmHg 49%
    11:00 +20°C° 0 mm 1 m/S 692 mmHg 47%
    12:00 +20°C° 0 mm 1 m/S 692 mmHg 46%
    13:00 +20°C° 0 mm 2 m/S 692 mmHg 44%
    14:00 +20°C° 0 mm 1 m/S 692 mmHg 50%
    15:00 +19°C° 0 mm 1 m/S 691 mmHg 56%
    16:00 +18°C° 0 mm 1 m/S 691 mmHg 62%
    17:00 +15°C° 0 mm 1 m/S 691 mmHg 69%
    18:00 +14°C° 0 mm 1 m/S 691 mmHg 76%
    19:00 +12°C° 0 mm 1 m/S 691 mmHg 84%
    20:00 +11°C° 0 mm 1 m/S 691 mmHg 86%
    21:00 +11°C° 0 mm 1 m/S 691 mmHg 87%
    22:00 +11°C° 0 mm 1 m/S 691 mmHg 89%
    23:00 +10°C° 0 mm 1 m/S 691 mmHg 90%

    Morgen, 21 Oktober, Samstag

    Zeit Temperatur Niederschläge Wind Luftdruck Luftfeuchtigkeit
    00:00 +10°C° 0 mm 1 m/S 691 mmHg 91%
    01:00 +10°C° 0 mm 1 m/S 691 mmHg 91%
    02:00 +10°C° 0 mm 1 m/S 691 mmHg 91%
    03:00 +10°C° 0 mm 1 m/S 691 mmHg 90%
    04:00 +9°C° 0 mm 1 m/S 691 mmHg 90%
    05:00 +10°C° 0 mm 1 m/S 691 mmHg 87%
    06:00 +10°C° 0 mm 1 m/S 691 mmHg 85%
    07:00 +10°C° 0 mm 1 m/S 691 mmHg 83%
    08:00 +13°C° 0 mm 1 m/S 692 mmHg 72%
    09:00 +15°C° 0 mm 1 m/S 692 mmHg 61%
    10:00 +19°C° 0 mm 1 m/S 693 mmHg 50%
    11:00 +20°C° 0 mm 1 m/S 692 mmHg 47%
    12:00 +20°C° 0 mm 1 m/S 692 mmHg 44%
    13:00 +21°C° 0 mm 1 m/S 692 mmHg 41%
    14:00 +20°C° 0 mm 1 m/S 692 mmHg 47%
    15:00 +19°C° 0 mm 1 m/S 691 mmHg 53%
    16:00 +18°C° 0 mm 1 m/S 691 mmHg 59%
    17:00 +15°C° 0 mm 1 m/S 691 mmHg 66%
    18:00 +13°C° 0 mm 1 m/S 690 mmHg 73%
    19:00 +11°C° 0 mm 1 m/S 690 mmHg 80%
    20:00 +11°C° 0 mm 1 m/S 690 mmHg 82%
    21:00 +11°C° 0 mm 1 m/S 690 mmHg 83%
    22:00 +11°C° 0 mm 1 m/S 690 mmHg 85%
    23:00 +10°C° 0 mm 1 m/S 690 mmHg 85%

    übermorgen, 22 Oktober, Sonntag

    Zeit Temperatur Niederschläge Wind Luftdruck Luftfeuchtigkeit
    00:00 +10°C° 0 mm 1 m/S 690 mmHg 86%
    01:00 +10°C° 0 mm 1 m/S 689 mmHg 87%
    02:00 +10°C° 0 mm 1 m/S 689 mmHg 88%
    03:00 +10°C° 0 mm 1 m/S 689 mmHg 88%
    04:00 +9°C° 0 mm 1 m/S 689 mmHg 89%
    05:00 +10°C° 0 mm 1 m/S 689 mmHg 88%
    06:00 +10°C° 0 mm 1 m/S 689 mmHg 87%
    07:00 +10°C° 0 mm 1 m/S 689 mmHg 86%
    08:00 +13°C° 0 mm 1 m/S 689 mmHg 78%
    09:00 +15°C° 0 mm 1 m/S 689 mmHg 70%
    10:00 +18°C° 0 mm 1 m/S 690 mmHg 61%
    11:00 +19°C° 0 mm 1 m/S 689 mmHg 60%
    12:00 +18°C° 0 mm 2 m/S 689 mmHg 59%
    13:00 +19°C° 0 mm 2 m/S 688 mmHg 57%
    14:00 +18°C° 0,1 mm 2 m/S 688 mmHg 64%
    15:00 +17°C° 0,1 mm 2 m/S 687 mmHg 71%
    16:00 +16°C° 0,1 mm 2 m/S 687 mmHg 77%
    17:00 +15°C° 0,4 mm 2 m/S 686 mmHg 83%
    18:00 +14°C° 0,4 mm 2 m/S 686 mmHg 88%
    19:00 +13°C° 0,4 mm 2 m/S 685 mmHg 94%
    20:00 +13°C° 1,1 mm 2 m/S 685 mmHg 94%
    21:00 +13°C° 1,1 mm 2 m/S 685 mmHg 95%
    22:00 +13°C° 1,1 mm 2 m/S 685 mmHg 95%
    23:00 +12°C° 1,8 mm 2 m/S 685 mmHg 95%

    23 Oktober, Montag

    Zeit Temperatur Niederschläge Wind Luftdruck Luftfeuchtigkeit
    00:00 +12°C° 1,8 mm 2 m/S 684 mmHg 95%
    01:00 +12°C° 1,8 mm 2 m/S 684 mmHg 95%
    02:00 +12°C° 2,7 mm 2 m/S 684 mmHg 95%
    03:00 +12°C° 2,7 mm 2 m/S 684 mmHg 95%
    04:00 +10°C° 2,7 mm 2 m/S 683 mmHg 95%
    05:00 +10°C° 2,2 mm 2 m/S 683 mmHg 95%
    06:00 +9°C° 2,2 mm 2 m/S 683 mmHg 94%
    07:00 +9°C° 2,2 mm 2 m/S 683 mmHg 94%
    08:00 +9°C° 1,2 mm 2 m/S 683 mmHg 91%
    09:00 +9°C° 1,2 mm 2 m/S 683 mmHg 88%
    10:00 +9°C° 1,2 mm 2 m/S 684 mmHg 85%
    11:00 +9°C° 0,6 mm 3 m/S 684 mmHg 84%
    12:00 +9°C° 0,6 mm 3 m/S 684 mmHg 82%
    13:00 +8°C° 0,6 mm 3 m/S 683 mmHg 81%
    14:00 +7°C° 0,3 mm 4 m/S 683 mmHg 81%
    15:00 +6°C° 0,3 mm 4 m/S 683 mmHg 81%
    16:00 +6°C° 0,3 mm 4 m/S 684 mmHg 82%
    17:00 +5°C° 0,1 mm 4 m/S 684 mmHg 82%
    18:00 +5°C° 0,1 mm 4 m/S 684 mmHg 82%
    19:00 +5°C° 0,1 mm 4 m/S 684 mmHg 82%
    20:00 +5°C° 0,1 mm 4 m/S 684 mmHg 82%
    21:00 +4°C° 0,1 mm 4 m/S 685 mmHg 82%
    22:00 +3°C° 0,1 mm 5 m/S 685 mmHg 82%
    23:00 +4°C° 0,1 mm 4 m/S 685 mmHg 82%

    24 Oktober, Dienstag

    Zeit Temperatur Niederschläge Wind Luftdruck Luftfeuchtigkeit
    00:00 +4°C° 0,1 mm 4 m/S 685 mmHg 83%
    01:00 +4°C° 0,1 mm 4 m/S 685 mmHg 83%
    02:00 +4°C° 0,1 mm 4 m/S 685 mmHg 84%
    03:00 +4°C° 0,1 mm 4 m/S 685 mmHg 84%
    04:00 +4°C° 0,1 mm 4 m/S 685 mmHg 85%
    05:00 +4°C° 0,1 mm 4 m/S 685 mmHg 85%
    06:00 +4°C° 0,1 mm 4 m/S 685 mmHg 85%
    07:00 +4°C° 0,1 mm 4 m/S 685 mmHg 85%
    08:00 +5°C° 0,1 mm 5 m/S 685 mmHg 82%
    09:00 +6°C° 0,1 mm 5 m/S 686 mmHg 78%
    10:00 +5°C° 0,1 mm 6 m/S 686 mmHg 75%
    11:00 +5°C° 0 mm 6 m/S 686 mmHg 75%
    12:00 +5°C° 0 mm 6 m/S 686 mmHg 75%
    13:00 +5°C° 0 mm 6 m/S 685 mmHg 75%
    14:00 +5°C° 0,1 mm 6 m/S 686 mmHg 76%
    15:00 +5°C° 0,1 mm 6 m/S 686 mmHg 78%
    16:00 +6°C° 0,1 mm 5 m/S 686 mmHg 79%
    17:00 +5°C° 0 mm 6 m/S 686 mmHg 80%
    18:00 +4°C° 0 mm 6 m/S 686 mmHg 81%
    19:00 +4°C° 0 mm 6 m/S 686 mmHg 82%
    20:00 +4°C° 0,1 mm 6 m/S 686 mmHg 82%
    21:00 +4°C° 0,1 mm 6 m/S 687 mmHg 82%
    22:00 +4°C° 0,1 mm 6 m/S 687 mmHg 82%
    23:00 +4°C° 0,1 mm 6 m/S 687 mmHg 82%

    25 Oktober, Mittwoch

    Zeit Temperatur Niederschläge Wind Luftdruck Luftfeuchtigkeit
    00:00 +4°C° 0,1 mm 6 m/S 687 mmHg 82%
    01:00 +4°C° 0,1 mm 7 m/S 687 mmHg 82%
    02:00 +4°C° 0,1 mm 6 m/S 688 mmHg 82%
    03:00 +4°C° 0,1 mm 6 m/S 688 mmHg 82%
    04:00 +4°C° 0,1 mm 6 m/S 688 mmHg 82%
    05:00 +4°C° 0 mm 6 m/S 688 mmHg 82%
    06:00 +5°C° 0 mm 5 m/S 689 mmHg 83%
    07:00 +5°C° 0 mm 5 m/S 689 mmHg 84%
    08:00 +6°C° 0 mm 5 m/S 690 mmHg 82%
    09:00 +7°C° 0 mm 5 m/S 690 mmHg 80%
    10:00 +7°C° 0 mm 5 m/S 691 mmHg 78%
    11:00 +8°C° 0 mm 5 m/S 691 mmHg 77%
    12:00 +8°C° 0 mm 5 m/S 691 mmHg 77%
    13:00 +9°C° 0 mm 5 m/S 692 mmHg 76%
    14:00 +8°C° 0 mm 4 m/S 692 mmHg 78%
    15:00 +8°C° 0 mm 4 m/S 692 mmHg 79%
    16:00 +8°C° 0 mm 4 m/S 692 mmHg 81%
    17:00 +7°C° 0 mm 4 m/S 692 mmHg 83%
    18:00 +8°C° 0 mm 3 m/S 693 mmHg 85%
    19:00 +7°C° 0 mm 3 m/S 693 mmHg 87%
    20:00 +7°C° 0 mm 3 m/S 693 mmHg 88%
    21:00 +7°C° 0 mm 3 m/S 694 mmHg 89%
    22:00 +5°C° 0 mm 3 m/S 694 mmHg 89%
    23:00 +5°C° 0 mm 3 m/S 694 mmHg 89%
    Mehr zeigen